Observations for Trim Market St
| Time | AQI | Temp °C | Hum % | Pres Pa | CO μg/m³ | H₂S μg/m³ | NO μg/m³ | NO₂ μg/m³ | O₃ μg/m³ | SO₂ μg/m³ | PM1 μg/m³ | PM2.5 μg/m³ | PM10 μg/m³ |
|---|---|---|---|---|---|---|---|---|---|---|---|---|---|
| Wednesday 15 July 2026 | |||||||||||||
| 09:45 | 1 | 25.5 | 53 | 57,732 | 0 | 0 | 0 | 1.27 | 27.96 | 0 | 12.11 | 16.62 | 24.28 |
| 09:38 | 1 | 25.7 | 52 | 57,516 | 0 | 0 | 0 | 0 | 24.79 | 0 | 12.11 | 16.67 | 25.09 |
| 09:36 | 1 | 25.8 | 52 | 57,437 | 0 | 0 | 0 | 0 | 21.4 | 0 | 12.83 | 16.68 | 23.64 |
| 09:35 | 1 | 25.9 | 52 | 57,420 | 0 | 0 | 0 | 0 | 24.25 | 0 | 9.26 | 15.65 | 21.45 |
| 09:34 | 1 | 25.9 | 52 | 57,379 | 0 | 0 | 0 | 0 | 26.39 | 0 | 11.4 | 16.18 | 22.94 |
| 09:24 | 1 | 26.5 | 51 | 56,470 | 0 | 0 | 0 | 0 | 11.96 | 0 | 10.69 | 14.23 | 20.12 |
| 09:23 | 1 | 26.6 | 51 | 56,360 | 0 | 0 | 0 | 0 | 11.07 | 0 | 10.69 | 15.27 | 21.63 |
| 09:22 | 1 | 26.7 | 51 | 56,246 | 0 | 0 | 0 | 0 | 5.08 | 0 | 10.69 | 15.78 | 23.11 |
| 09:21 | 1 | 26.8 | 50 | 56,175 | 0 | 0 | 0 | 0 | 5.06 | 0 | 9.26 | 13.73 | 20.9 |
| 09:20 | 1 | 26.9 | 50 | 56,124 | 0 | 0 | 0 | 0 | 3.17 | 0 | 9.98 | 16.3 | 23.12 |
| 09:19 | 1 | 26.9 | 50 | 56,070 | 0 | 0 | 0 | 0 | 1.95 | 0 | 10.69 | 16.82 | 23.12 |
| 09:18 | 1 | 27 | 51 | 56,041 | 0 | 0 | 0 | 0 | 1.4 | 0 | 10.69 | 17.84 | 26.82 |
| 09:17 | 1 | 27.1 | 51 | 56,021 | 0 | 0 | 0 | 0 | 0.37 | 0 | 11.4 | 16.29 | 23.1 |
| 09:16 | 1 | 27.2 | 51 | 56,014 | 0 | 0 | 0 | 0 | 0 | 0 | 10.69 | 14.75 | 20.13 |
| 09:14 | 1 | 27.2 | 51 | 56,066 | 0.05 | 0 | 0 | 0 | 0 | 0 | 11.4 | 16.25 | 23.04 |
| 09:13 | 1 | 27.2 | 52 | 56,150 | 0.17 | 0 | 0 | 0 | 0 | 0 | 11.4 | 15.71 | 22.26 |
| 09:12 | 1 | 27.2 | 52 | 56,262 | 0.43 | 0 | 0 | 0 | 1.05 | 0 | 12.11 | 14.66 | 22.23 |
| 09:08 | 1 | 27 | 53 | 56,571 | 0.24 | 0 | 0 | 0 | 2.74 | 0 | 11.4 | 16.62 | 22.82 |
| 09:07 | 1 | 27 | 53 | 56,727 | 0.26 | 0 | 0 | 1.14 | 0.54 | 0 | 10.69 | 14.55 | 20.61 |
| 09:05 | 1 | 26.8 | 54 | 56,966 | 0.34 | 0 | 0 | 1.12 | 4.69 | 0 | 10.69 | 16.54 | 24.16 |